Location: Alberta Star Party
(51.6612°N, 112.9089°W)
Time: 13:36:58
(UTC-07:00)

Amateur Radio Satellites - All Passes

Search period start: 09 February 2016 13:06
Search period end: 10 February 2016 13:06
Location: Alberta Star Party, 51.6612°N, 112.9089°W

Satellite Date Start Highest point End Downlink Frequencies (MHz)
Time Altitude Azimuth
AIST 1 09 Feb 13:07:25 13:09:29 13° 301° (WNW) 13:11:32
DX 1 09 Feb 13:08:10 13:12:07 34° 296° (WNW) 13:16:02 434.975-435.025
AO-85 09 Feb 13:17:18 13:22:22 36° 329° (NNW) 13:27:26 145.980
TISAT 1 09 Feb 13:17:59 13:22:02 46° 99° (E) 13:26:03 437.305
SO-50 09 Feb 13:22:32 13:27:27 77° 46° (NE) 13:32:12 436.795
Cosmos 2504 09 Feb 13:24:42 13:28:07 12° 35° (NE) 13:31:29 435.465 / 435.565
YUBILEINY 09 Feb 13:25:44 13:33:51 37° 63° (ENE) 13:41:52 435.215
50 SAT 09 Feb 13:33:56 13:36:04 15° 301° (WNW) 13:38:11 437.505
Oscar 19 09 Feb 13:36:25 13:41:23 44° 262° (W) 13:46:22 437.125/150
ITUPSAT 1 09 Feb 13:40:11 13:43:32 18° 90° (E) 13:46:52 437.325
Cosmos 2491 09 Feb 13:42:10 13:47:09 17° 70° (ENE) 13:52:07 435.465 / 435.565
BEESAT 09 Feb 13:48:43 13:52:27 22° 91° (E) 13:56:10 436.000
VELOX 1 09 Feb 14:02:10 14:04:36 15° 306° (NW) 14:07:02 145.980
Gurwin Techsat 1B 09 Feb 14:03:10 14:08:26 64° 258° (WSW) 14:13:45 435.225
CUSAT 1 09 Feb 14:06:27 14:12:03 32° 274° (W) 14:16:27 437.405
JAS-2 09 Feb 14:09:06 14:16:19 46° 263° (W) 14:22:55 435.910
RS-15 09 Feb 14:14:08 14:25:27 67° 324° (NW) 14:37:27 29.354- 29.394
AO-7 09 Feb 14:18:07 14:26:13 57° 59° (ENE) 14:34:20 29.400- 29.500
AISAT 09 Feb 14:20:02 14:20:57 11° 310° (NW) 14:21:54 437.250
HORYU 2 09 Feb 14:30:53 14:33:47 17° 57° (ENE) 14:36:42 437.375
Cosmos 2499 09 Feb 14:31:12 14:32:43 10° 329° (NNW) 14:34:14 435.465 / 435.565
DANDE 09 Feb 14:35:07 14:41:57 39° 274° (W) 14:47:24 436.750
SWISSCUBE 09 Feb 14:40:24 14:45:13 64° 102° (ESE) 14:50:00 437.505
PCSat 09 Feb 14:42:05 14:46:05 20° 339° (NNW) 14:50:07 145.827
ITAMSAT 1 09 Feb 14:44:03 14:49:06 50° 260° (W) 14:54:12 435.822/435.867
SPROUT 09 Feb 14:44:15 14:46:36 15° 304° (NW) 14:48:57 437.525
TISAT 1 09 Feb 14:54:08 14:57:29 23° 298° (WNW) 15:00:49 437.305
M-CUBED/EXP-1 PRIME 09 Feb 14:55:21 14:58:49 50° 65° (ENE) 15:02:06 437.505
AO-85 09 Feb 15:00:15 15:04:22 21° 352° (N) 15:08:23 145.980
SO-50 09 Feb 15:03:50 15:07:27 21° 246° (WSW) 15:10:57 436.795
AUBIESAT-1 09 Feb 15:05:30 15:08:58 53° 65° (ENE) 15:12:17 437.475
Cosmos 2504 09 Feb 15:16:37 15:24:45 39° 63° (ENE) 15:32:25 435.465 / 435.565
ITUPSAT 1 09 Feb 15:17:05 15:21:54 71° 289° (WNW) 15:26:42 437.325
STARS 09 Feb 15:20:18 15:22:47 15° 88° (E) 15:25:15 437.465
YUBILEINY 09 Feb 15:22:34 15:31:19 67° 267° (W) 15:40:00 435.215
BEESAT 09 Feb 15:25:54 15:30:38 59° 291° (WNW) 15:35:20 436.000
MOZHAYETS 4 09 Feb 15:26:42 15:29:11 14° 86° (E) 15:31:39
Cosmos 2491 09 Feb 15:33:40 15:42:16 67° 93° (E) 15:50:53 435.465 / 435.565
KKS-1 09 Feb 15:35:11 15:39:14 33° 96° (E) 15:43:15 437.445
Gurwin Techsat 1B 09 Feb 15:48:21 15:49:30 11° 278° (W) 15:50:38 435.225
HORYU 2 09 Feb 16:05:26 16:09:51 76° 256° (WSW) 16:14:18 437.375
O/OREOS (USA 219) 09 Feb 16:07:28 16:10:37 18° 40° (NE) 16:13:46 437.305
AO-7 09 Feb 16:11:19 16:19:15 45° 261° (W) 16:27:12 29.400- 29.500
LilacSat-2 09 Feb 16:17:11 16:17:41 10° 55° (NE) 16:18:12 437.200
SWISSCUBE 09 Feb 16:18:56 16:22:38 22° 302° (WNW) 16:26:19 437.505
CUTE-I 09 Feb 16:20:14 16:24:15 22° 55° (NE) 16:28:18 437.470
PCSat 09 Feb 16:28:13 16:31:35 16° 6° (N) 16:34:56 145.827
RS-15 09 Feb 16:29:21 16:40:22 44° 356° (N) 16:51:53 29.354- 29.394
M-CUBED/EXP-1 PRIME 09 Feb 16:31:33 16:33:43 15° 261° (W) 16:35:50 437.505
Cubesat XI-IV 09 Feb 16:33:21 16:37:45 27° 58° (ENE) 16:42:11 437.490
AUBIESAT-1 09 Feb 16:41:51 16:43:51 14° 262° (W) 16:45:49 437.475
AO-85 09 Feb 16:42:16 16:46:39 24° 17° (NNE) 16:50:50 145.980
GOMX 1 09 Feb 16:45:14 16:47:00 12° 51° (NE) 16:48:44 467.674
STARS 09 Feb 16:55:20 16:59:43 76° 287° (WNW) 17:04:05 437.465
ITUPSAT 1 09 Feb 16:56:32 16:58:56 14° 309° (NW) 17:01:19 437.325
HO-68 09 Feb 17:01:15 17:04:52 15° 36° (NE) 17:08:28 435.675
MOZHAYETS 4 09 Feb 17:02:20 17:07:00 86° 289° (WNW) 17:11:40
BEESAT 09 Feb 17:05:50 17:07:29 12° 311° (NW) 17:09:09 436.000
Cosmos 2504 09 Feb 17:10:05 17:18:41 63° 268° (W) 17:26:44 435.465 / 435.565
KKS-1 09 Feb 17:11:49 17:15:49 34° 296° (WNW) 17:19:49 437.445
BRITE-PL 09 Feb 17:12:00 17:16:53 31° 62° (ENE) 17:21:38 437.365/2234.400
YUBILEINY 09 Feb 17:21:16 17:26:21 17° 290° (WNW) 17:31:26 435.215
ISS 09 Feb 17:27:42 17:30:44 37° 153° (SSE) 17:33:46 145.825
Cosmos 2491 09 Feb 17:31:54 17:39:47 36° 298° (WNW) 17:47:43 435.465 / 435.565
CUBESAT XI-V 09 Feb 17:42:18 17:46:34 32° 95° (E) 17:50:47 437.345
O/OREOS (USA 219) 09 Feb 17:46:09 17:50:45 84° 61° (ENE) 17:55:22 437.305
HORYU 2 09 Feb 17:46:31 17:47:14 10° 275° (W) 17:47:57 437.375
LilacSat-2 09 Feb 17:47:32 17:51:20 75° 75° (ENE) 17:55:09 437.200
BEESAT 3 09 Feb 17:55:42 17:59:29 43° 123° (ESE) 18:03:17 437.485
CUTE-I 09 Feb 17:58:27 18:03:47 77° 256° (WSW) 18:09:11 437.470
DOVE 4 09 Feb 18:02:56 18:06:54 24° 62° (ENE) 18:10:43 437.250
PCSat 09 Feb 18:12:06 18:16:48 28° 31° (NNE) 18:21:28 145.827
Cubesat XI-IV 09 Feb 18:12:13 18:17:29 61° 258° (WSW) 18:22:49 437.490
STRAND 1 09 Feb 18:17:24 18:19:19 12° 84° (E) 18:21:15 437.568
GOMX 1 09 Feb 18:18:56 18:24:09 54° 70° (ENE) 18:29:07 467.674
BEESAT 2 09 Feb 18:19:19 18:23:12 48° 125° (SE) 18:27:06 435.950
AO-85 09 Feb 18:22:59 18:28:17 56° 40° (NE) 18:33:11 145.980
Cosmos 2499 09 Feb 18:26:35 18:30:30 13° 38° (NE) 18:34:17 435.465 / 435.565
CANX-2 09 Feb 18:29:18 18:32:14 18° 59° (ENE) 18:35:10 2200.000
STARS 09 Feb 18:33:24 18:35:23 13° 307° (NW) 18:37:21 437.465
AIST 2 09 Feb 18:37:52 18:39:06 11° 110° (ESE) 18:40:20 435.215
MOZHAYETS 4 09 Feb 18:40:51 18:43:32 15° 305° (NW) 18:46:12
RS-15 09 Feb 18:44:03 18:55:46 56° 28° (NNE) 19:07:51 29.354- 29.394
HO-68 09 Feb 18:44:10 18:50:54 46° 59° (ENE) 18:57:41 435.675
BRITE-PL 09 Feb 18:49:32 18:55:07 56° 260° (W) 19:00:33 437.365/2234.400
GONETS M04 09 Feb 18:50:45 18:58:26 32° 59° (ENE) 19:06:06
CINEMA 3 09 Feb 18:59:14 19:03:03 27° 64° (ENE) 19:06:45 145.822/145.860
ISS 09 Feb 19:03:46 19:07:01 87° 182° (S) 19:10:18 145.825
Cosmos 2504 09 Feb 19:05:34 19:10:10 16° 292° (WNW) 19:14:40 435.465 / 435.565
CUBEBUG 2 09 Feb 19:09:22 19:11:44 15° 57° (ENE) 19:14:03 437.445
UWE-3 09 Feb 19:11:35 19:13:04 12° 54° (NE) 19:14:34 435.000/436.395/437.385
COMPASS 1 09 Feb 19:12:23 19:15:44 24° 63° (ENE) 19:19:08 437.405
Oscar 11 09 Feb 19:12:30 19:14:02 12° 53° (NE) 19:15:34 145.826/435.025
CUTE 1.7 + AOD 2 09 Feb 19:18:38 19:22:38 43° 69° (ENE) 19:26:40 437.475
CUBESAT XI-V 09 Feb 19:19:38 19:24:01 38° 294° (WNW) 19:28:22 437.345
LilacSat-2 09 Feb 19:24:40 19:26:11 12° 273° (W) 19:27:42 437.200
PRISM 09 Feb 19:25:03 19:27:16 14° 88° (E) 19:29:27 437.425
SEEDS 09 Feb 19:25:29 19:29:24 39° 68° (ENE) 19:33:20 437.485
O/OREOS (USA 219) 09 Feb 19:26:58 19:29:32 15° 261° (W) 19:32:05 437.305
BEESAT 3 09 Feb 19:33:39 19:37:20 34° 324° (NW) 19:41:02 437.485
Cosmos 2491 09 Feb 19:37:44 19:40:06 11° 327° (NNW) 19:42:28 435.465 / 435.565
DOVE 4 09 Feb 19:39:21 19:44:20 58° 259° (W) 19:49:04 437.250
AAUSAT CUBESAT 2 09 Feb 19:40:42 19:44:30 36° 67° (ENE) 19:48:20 437.432
CUTE-I 09 Feb 19:42:14 19:44:46 13° 275° (W) 19:47:19 437.470
STRAND 1 09 Feb 19:54:15 19:59:27 72° 104° (ESE) 20:04:36 437.568
PCSat 09 Feb 19:55:23 20:00:51 86° 236° (SW) 20:06:18 145.827
BEESAT 2 09 Feb 19:57:37 20:01:16 32° 325° (NW) 20:04:56 435.950
GOMX 1 09 Feb 19:57:57 20:02:28 27° 267° (W) 20:06:50 467.674
Cubesat XI-IV 09 Feb 19:58:20 19:58:43 10° 278° (W) 19:59:06 437.490
CANX-2 09 Feb 20:03:30 20:07:41 64° 258° (WSW) 20:11:55 2200.000
ZACube-1 09 Feb 20:03:52 20:07:14 24° 63° (ENE) 20:10:35 437.345
AO-85 09 Feb 20:03:57 20:08:37 34° 243° (WSW) 20:12:57 145.980
AIST 2 09 Feb 20:12:42 20:16:51 72° 129° (SE) 20:21:02 435.215
FUNcube-1 09 Feb 20:12:49 20:16:21 27° 64° (ENE) 20:19:52 145.935
Cosmos 2499 09 Feb 20:18:27 20:26:35 43° 66° (ENE) 20:34:08 435.465 / 435.565
HUMSAT D 09 Feb 20:25:27 20:27:38 14° 57° (ENE) 20:29:50 437.325/437.525
HO-68 09 Feb 20:31:42 20:38:37 49° 260° (W) 20:45:36 435.675
CINEMA 3 09 Feb 20:35:43 20:40:05 43° 262° (W) 20:44:17 145.822/145.860
ISS 09 Feb 20:40:14 20:43:29 74° 193° (SSW) 20:46:44 145.825
CUBEBUG 2 09 Feb 20:43:31 20:47:50 84° 257° (WSW) 20:52:03 437.445
UWE-3 09 Feb 20:44:38 20:48:52 75° 73° (ENE) 20:53:03 435.000/436.395/437.385
Oscar 11 09 Feb 20:45:07 20:49:24 71° 73° (ENE) 20:53:43 145.826/435.025
COMPASS 1 09 Feb 20:47:09 20:51:07 44° 262° (W) 20:55:09 437.405
GONETS M04 09 Feb 20:47:26 20:56:14 78° 263° (W) 21:05:02
CUTE 1.7 + AOD 2 09 Feb 20:55:16 20:58:41 24° 268° (W) 21:02:09 437.475
DELFI C3 09 Feb 20:55:45 20:59:37 50° 70° (ENE) 21:03:31 145.870
RS-15 09 Feb 20:57:04 21:09:04 74° 236° (SW) 21:21:19 29.354- 29.394
PRISM 09 Feb 20:58:55 21:03:09 77° 287° (WNW) 21:07:18 437.425
DX 1 09 Feb 21:00:48 21:01:19 10° 50° (NE) 21:01:49 434.975-435.025
SEEDS 09 Feb 21:01:44 21:05:15 26° 267° (W) 21:08:48 437.485
50 SAT 09 Feb 21:13:43 21:14:15 10° 55° (NE) 21:14:47 437.505
BEESAT 3 09 Feb 21:13:58 21:16:12 14° 347° (NNW) 21:18:26 437.485
AAUSAT CUBESAT 2 09 Feb 21:16:30 21:20:06 28° 266° (W) 21:23:42 437.432
AIST 1 09 Feb 21:28:14 21:32:25 42° 73° (ENE) 21:36:33
STRAND 1 09 Feb 21:34:13 21:38:10 23° 303° (WNW) 21:42:07 437.568
BEESAT 2 09 Feb 21:38:07 21:40:20 14° 348° (NNW) 21:42:32 435.950
ZACube-1 09 Feb 21:39:20 21:43:21 44° 261° (W) 21:47:22 437.345
PCSat 09 Feb 21:40:01 21:43:31 18° 254° (WSW) 21:47:00 145.827
FUNcube-1 09 Feb 21:48:37 21:52:31 37° 263° (W) 21:56:25 145.935
UNISAT 6 09 Feb 21:49:37 21:51:51 14° 88° (E) 21:54:04 437.425
VELOX 1 09 Feb 21:51:23 21:54:59 24° 61° (ENE) 21:58:35 145.980
AIST 2 09 Feb 21:52:11 21:55:45 26° 330° (NNW) 21:59:20 435.215
HUMSAT D 09 Feb 21:58:39 22:02:44 83° 256° (WSW) 22:06:51 437.325/437.525
AISAT 09 Feb 22:07:31 22:11:32 34° 65° (ENE) 22:15:33 437.250
Cosmos 2499 09 Feb 22:11:46 22:20:01 55° 270° (W) 22:27:41 435.465 / 435.565
ISS 09 Feb 22:16:54 22:19:38 25° 212° (SSW) 22:22:21 145.825
UKube-1 09 Feb 22:20:43 22:24:45 39° 66° (ENE) 22:28:49 .
Oscar 11 09 Feb 22:23:27 22:26:03 16° 272° (W) 22:28:40 145.826/435.025
UWE-3 09 Feb 22:23:40 22:25:52 14° 272° (W) 22:28:05 435.000/436.395/437.385
CUBEBUG 2 09 Feb 22:24:03 22:25:09 11° 274° (W) 22:26:15 437.445
CUBEBUG 1 09 Feb 22:27:15 22:31:24 40° 67° (ENE) 22:35:34 437.445
ESTCUBE 1 09 Feb 22:28:36 22:33:01 53° 70° (ENE) 22:37:29 437.505/2401.250
SPROUT 09 Feb 22:31:17 22:34:22 19° 59° (ENE) 22:37:26 437.525
DELFI C3 09 Feb 22:32:00 22:34:51 19° 269° (W) 22:37:43 145.870
DX 1 09 Feb 22:32:19 22:36:37 57° 70° (ENE) 22:40:56 434.975-435.025
ANTELSAT 09 Feb 22:33:25 22:37:23 34° 97° (E) 22:41:22 437.575/2403.000
PRISM 09 Feb 22:36:04 22:37:46 12° 307° (NW) 22:39:29 437.425
NANOSAT C BR1 09 Feb 22:39:54 22:40:49 11° 85° (E) 22:41:45 145.865
TIGRISAT 09 Feb 22:40:17 22:44:19 37° 97° (E) 22:48:23 435.000
DUCHIFAT 1 09 Feb 22:41:28 22:42:16 10° 85° (E) 22:43:04 145.980
TISAT 1 09 Feb 22:42:30 22:43:54 11° 53° (NE) 22:45:17 437.305
50 SAT 09 Feb 22:43:54 22:47:37 78° 74° (ENE) 22:51:22 437.505
GONETS M04 09 Feb 22:45:43 22:51:37 21° 287° (WNW) 22:57:32
QB50P1 09 Feb 22:46:51 22:48:53 13° 87° (E) 22:50:54 145.935-145.965
BEESAT 3 09 Feb 22:53:27 22:55:32 14° 11° (N) 22:57:37 437.485
AIST 1 09 Feb 23:06:18 23:09:48 24° 273° (W) 23:13:16
RS-15 09 Feb 23:10:43 23:19:31 24° 261° (W) 23:28:27 29.354- 29.394
BEESAT 2 09 Feb 23:17:33 23:19:48 14° 12° (NNE) 23:22:01 435.950
UNISAT 6 09 Feb 23:24:48 23:29:09 81° 285° (WNW) 23:33:32 437.425
VELOX 1 09 Feb 23:26:51 23:31:13 51° 260° (W) 23:35:35 145.980
AIST 2 09 Feb 23:33:22 23:35:35 14° 353° (N) 23:37:49 435.215
POLYITAN 1 09 Feb 23:38:03 23:42:02 39° 98° (E) 23:45:59 437.675
QB50P2 09 Feb 23:38:40 23:42:42 41° 98° (E) 23:46:42 145.880/145.840
HUMSAT D 09 Feb 23:38:57 23:39:06 10° 275° (W) 23:39:15 437.325/437.525
BUGSAT 1 09 Feb 23:41:20 23:44:32 22° 93° (E) 23:47:42 437.445
Cosmos 2491 09 Feb 23:41:28 23:45:41 14° 39° (NE) 23:49:53 435.465 / 435.565
AISAT 09 Feb 23:43:56 23:48:01 34° 263° (W) 23:52:08 437.250
CUSAT 1 09 Feb 23:55:52 23:57:22 11° 70° (ENE) 23:58:52 437.405
UKube-1 09 Feb 23:57:11 00:00:55 28° 265° (W) 00:04:43 .
CUBEBUG 1 10 Feb 00:03:59 00:07:49 28° 266° (W) 00:11:40 437.445
SPROUT 10 Feb 00:05:42 00:09:58 62° 259° (WSW) 00:14:15 437.525
ESTCUBE 1 10 Feb 00:06:37 00:10:09 22° 268° (W) 00:13:43 437.505/2401.250
Cosmos 2499 10 Feb 00:07:42 00:11:01 13° 294° (WNW) 00:14:16 435.465 / 435.565
POPSAT HIP 1 10 Feb 00:08:21 00:12:35 77° 105° (ESE) 00:16:46 437.405
DX 1 10 Feb 00:09:57 00:13:11 20° 269° (W) 00:16:25 434.975-435.025
ANTELSAT 10 Feb 00:10:14 00:14:06 32° 295° (WNW) 00:18:00 437.575/2403.000
NANOSAT C BR1 10 Feb 00:13:04 00:17:17 83° 105° (ESE) 00:21:29 145.865
DUCHIFAT 1 10 Feb 00:14:29 00:18:43 83° 106° (ESE) 00:22:53 145.980
TISAT 1 10 Feb 00:14:37 00:18:50 71° 72° (ENE) 00:23:03 437.305
SWISSCUBE 10 Feb 00:15:51 00:19:32 23° 58° (ENE) 00:23:15 437.505
TIGRISAT 10 Feb 00:17:13 00:20:56 29° 296° (WNW) 00:24:44 435.000
50 SAT 10 Feb 00:21:01 00:22:11 11° 273° (W) 00:23:21 437.505
QB50P1 10 Feb 00:21:02 00:25:16 80° 284° (WNW) 00:29:27 145.935-145.965
DANDE 10 Feb 00:27:52 00:30:36 12° 69° (ENE) 00:33:22 436.750
BEESAT 3 10 Feb 00:30:54 00:34:29 30° 34° (NE) 00:38:01 437.485
ITUPSAT 1 10 Feb 00:51:46 00:56:11 38° 65° (ENE) 01:00:37 437.325
BEESAT 2 10 Feb 00:55:10 00:58:50 33° 35° (NE) 01:02:29 435.950
BEESAT 10 Feb 01:00:03 01:04:35 45° 67° (ENE) 01:09:08 436.000
UNISAT 6 10 Feb 01:03:12 01:05:13 13° 305° (NW) 01:07:16 437.425
KKS-1 10 Feb 01:05:44 01:06:51 11° 51° (NE) 01:07:57 437.445
AIST 2 10 Feb 01:12:54 01:15:40 17° 18° (NNE) 01:18:25 435.215
JAS-2 10 Feb 01:13:57 01:18:13 21° 87° (E) 01:22:11 435.910
POLYITAN 1 10 Feb 01:14:11 01:17:44 27° 297° (WNW) 01:21:15 437.675
QB50P2 10 Feb 01:14:51 01:18:22 26° 297° (WNW) 01:21:52 145.880/145.840
BUGSAT 1 10 Feb 01:16:17 01:20:09 43° 292° (WNW) 01:23:58 437.445
CUSAT 1 10 Feb 01:30:21 01:37:52 44° 90° (E) 01:45:11 437.405
Cosmos 2491 10 Feb 01:37:05 01:45:26 46° 67° (ENE) 01:53:46 435.465 / 435.565
Oscar 19 10 Feb 01:42:08 01:47:03 43° 98° (E) 01:51:55 437.125/150
POPSAT HIP 1 10 Feb 01:45:18 01:47:53 16° 303° (WNW) 01:50:26 437.405
NANOSAT C BR1 10 Feb 01:50:07 01:52:29 15° 304° (WNW) 01:54:51 145.865
DUCHIFAT 1 10 Feb 01:51:30 01:53:52 15° 304° (WNW) 01:56:14 145.980
SWISSCUBE 10 Feb 01:52:15 01:56:58 62° 258° (WSW) 02:01:45 437.505
TISAT 1 10 Feb 01:52:31 01:55:00 15° 271° (W) 01:57:30 437.305
QB50P1 10 Feb 01:58:32 02:00:22 13° 306° (NW) 02:02:13 145.935-145.965
DANDE 10 Feb 02:04:01 02:11:34 47° 90° (E) 02:19:32 436.750
BEESAT 3 10 Feb 02:08:35 02:12:27 51° 235° (SW) 02:16:17 437.485
Gurwin Techsat 1B 10 Feb 02:13:53 02:18:45 35° 95° (E) 02:23:35 435.225
AO-7 10 Feb 02:18:29 02:18:54 10° 77° (ENE) 02:19:19 29.400- 29.500
STARS 10 Feb 02:21:39 02:25:20 27° 62° (ENE) 02:29:01 437.465
ITUPSAT 1 10 Feb 02:29:45 02:34:05 34° 264° (W) 02:38:27 437.325
BEESAT 2 10 Feb 02:33:02 02:36:52 45° 236° (SW) 02:40:41 435.950
MOZHAYETS 4 10 Feb 02:33:21 02:37:05 25° 61° (ENE) 02:40:51
YUBILEINY 10 Feb 02:34:38 02:42:08 33° 81° (E) 02:49:39 435.215
KKS-1 10 Feb 02:38:09 02:42:33 60° 70° (ENE) 02:46:58 437.445
BEESAT 10 Feb 02:38:28 02:42:34 28° 266° (W) 02:46:42 436.000
AIST 2 10 Feb 02:51:06 02:55:07 46° 40° (NE) 02:59:07 435.215
ITAMSAT 1 10 Feb 02:51:11 02:56:05 38° 97° (E) 03:00:57 435.822/435.867
JAS-2 10 Feb 02:58:12 03:04:07 72° 289° (WNW) 03:09:26 435.910
CUSAT 1 10 Feb 03:12:06 03:20:05 57° 290° (WNW) 03:27:46 437.405
CUBESAT XI-V 10 Feb 03:17:28 03:18:43 11° 50° (NE) 03:19:58 437.345
Oscar 19 10 Feb 03:21:42 03:26:18 34° 298° (WNW) 03:30:51 437.125/150
Cosmos 2491 10 Feb 03:34:07 03:42:29 53° 271° (W) 03:50:53 435.465 / 435.565
DANDE 10 Feb 03:46:33 03:54:30 56° 291° (WNW) 04:02:49 436.750
HORYU 2 10 Feb 03:52:16 03:54:41 14° 88° (E) 03:57:06 437.375
Gurwin Techsat 1B 10 Feb 03:53:47 03:58:50 43° 295° (WNW) 04:03:50 435.225
STARS 10 Feb 03:57:20 04:01:33 44° 261° (W) 04:05:46 437.465
PHONESAT 2.4 10 Feb 04:01:27 04:02:47 12° 184° (S) 04:04:06 2401.200-2431.200
Cosmos 2504 10 Feb 04:02:22 04:09:16 27° 77° (ENE) 04:16:17 435.465 / 435.565
M-CUBED/EXP-1 PRIME 10 Feb 04:05:02 04:06:44 13° 98° (E) 04:08:28 437.505
AO-7 10 Feb 04:05:56 04:13:58 48° 100° (E) 04:21:55 29.400- 29.500
MOZHAYETS 4 10 Feb 04:09:35 04:14:01 50° 261° (W) 04:18:31
AUBIESAT-1 10 Feb 04:14:27 04:16:24 14° 98° (E) 04:18:23 437.475
KKS-1 10 Feb 04:16:18 04:19:31 19° 269° (W) 04:22:45 437.445
YUBILEINY 10 Feb 04:29:29 04:38:16 71° 284° (WNW) 04:47:10 435.215
AIST 2 10 Feb 04:29:51 04:33:31 30° 240° (WSW) 04:37:07 435.215
ITAMSAT 1 10 Feb 04:30:44 04:35:35 39° 297° (WNW) 04:40:24 435.822/435.867
JAS-2 10 Feb 04:44:35 04:48:07 16° 313° (NW) 04:51:28 435.910
CUBESAT XI-V 10 Feb 04:50:33 04:55:09 57° 70° (ENE) 04:59:48 437.345
CUSAT 1 10 Feb 04:58:48 05:04:03 18° 311° (NW) 05:09:08 437.405
SO-50 10 Feb 05:21:42 05:26:15 38° 121° (ESE) 05:30:49 436.795
HORYU 2 10 Feb 05:27:23 05:31:51 81° 288° (WNW) 05:36:19 437.375
DANDE 10 Feb 05:33:54 05:39:28 19° 314° (NW) 05:45:05 436.750
Cosmos 2491 10 Feb 05:34:04 05:37:10 12° 294° (WNW) 05:40:18 435.465 / 435.565
STRAND 1 10 Feb 05:37:24 05:41:51 31° 61° (ENE) 05:46:20 437.568
M-CUBED/EXP-1 PRIME 10 Feb 05:38:26 05:41:42 56° 295° (WNW) 05:45:07 437.505
AUBIESAT-1 10 Feb 05:47:59 05:51:17 53° 295° (WNW) 05:54:44 437.475
Cosmos 2504 10 Feb 05:52:55 06:01:37 86° 279° (W) 06:10:38 435.465 / 435.565
AO-7 10 Feb 05:58:53 06:06:54 53° 302° (WNW) 06:14:51 29.400- 29.500
CUTE-I 10 Feb 06:10:14 06:14:54 29° 93° (E) 06:19:31 437.470
PRISM 10 Feb 06:19:21 06:22:35 22° 61° (ENE) 06:25:50 437.425
Cubesat XI-IV 10 Feb 06:23:54 06:28:52 36° 96° (E) 06:33:49 437.490
CUBESAT XI-V 10 Feb 06:29:15 06:32:54 22° 269° (W) 06:36:35 437.345
YUBILEINY 10 Feb 06:30:34 06:36:59 22° 310° (NW) 06:43:28 435.215
BRITE-PL 10 Feb 06:49:38 06:54:06 34° 94° (E) 06:58:14 437.365/2234.400
LilacSat-2 10 Feb 06:49:58 06:53:42 53° 100° (E) 06:57:24 437.200
SO-50 10 Feb 07:01:53 07:06:42 50° 321° (NW) 07:11:32 436.795
HORYU 2 10 Feb 07:05:29 07:07:45 14° 306° (NW) 07:10:01 437.375
STRAND 1 10 Feb 07:15:55 07:20:52 48° 261° (W) 07:25:52 437.568
DOVE 4 10 Feb 07:33:29 07:37:00 24° 92° (E) 07:40:23 437.250
CANX-2 10 Feb 07:44:04 07:46:47 16° 88° (E) 07:49:30 2200.000
Cosmos 2504 10 Feb 07:49:15 07:56:26 27° 305° (NW) 08:03:44 435.465 / 435.565
CUTE-I 10 Feb 07:49:59 07:55:13 53° 293° (WNW) 08:00:27 437.470
AO-7 10 Feb 07:52:33 07:57:57 19° 326° (NW) 08:03:21 29.400- 29.500
HO-68 10 Feb 07:53:22 07:59:21 27° 91° (E) 08:05:16 435.675
PRISM 10 Feb 07:53:35 07:57:39 50° 259° (W) 08:01:46 437.425
GOMX 1 10 Feb 07:53:40 07:58:13 68° 102° (ESE) 08:02:28 467.674
GONETS M04 10 Feb 08:00:34 08:07:27 27° 78° (ENE) 08:14:22
Cubesat XI-IV 10 Feb 08:03:58 08:09:02 42° 296° (WNW) 08:14:04 437.490
O/OREOS (USA 219) 10 Feb 08:04:07 08:08:07 33° 107° (ESE) 08:12:10 437.305
TIGRISAT 10 Feb 08:11:42 08:12:27 10° 52° (NE) 08:13:12 435.000
CINEMA 3 10 Feb 08:24:55 08:28:31 28° 94° (E) 08:32:07 145.822/145.860
COMPASS 1 10 Feb 08:25:00 08:28:15 21° 91° (E) 08:31:29 437.405
LilacSat-2 10 Feb 08:25:08 08:27:42 18° 299° (WNW) 08:30:17 437.200
BRITE-PL 10 Feb 08:28:09 08:32:39 36° 296° (WNW) 08:36:48 437.365/2234.400
CUBEBUG 2 10 Feb 08:30:14 08:32:16 13° 87° (E) 08:34:20 437.445
CUTE 1.7 + AOD 2 10 Feb 08:33:44 08:37:48 41° 97° (E) 08:41:53 437.475
SEEDS 10 Feb 08:39:27 08:43:24 36° 96° (E) 08:47:22 437.485
SO-50 10 Feb 08:44:30 08:48:17 21° 344° (NNW) 08:52:03 436.795
AAUSAT CUBESAT 2 10 Feb 08:52:55 08:56:43 32° 95° (E) 09:00:30 437.432
UNISAT 6 10 Feb 08:53:21 08:56:47 24° 62° (ENE) 09:00:12 437.425
Cosmos 2499 10 Feb 09:01:46 09:09:02 30° 79° (E) 09:16:20 435.465 / 435.565
POLYITAN 1 10 Feb 09:04:42 09:04:52 10° 52° (NE) 09:05:01 437.675
QB50P2 10 Feb 09:04:43 09:05:28 10° 52° (NE) 09:06:13 145.880/145.840
DOVE 4 10 Feb 09:10:52 09:14:57 42° 292° (WNW) 09:18:53 437.250
CANX-2 10 Feb 09:18:50 09:23:07 67° 288° (WNW) 09:27:23 2200.000
ZACube-1 10 Feb 09:22:16 09:25:38 23° 93° (E) 09:29:02 437.345
FUNcube-1 10 Feb 09:30:58 09:34:32 26° 94° (E) 09:38:08 145.935
POPSAT HIP 1 10 Feb 09:32:04 09:34:48 17° 58° (ENE) 09:37:31 437.405
CUTE-I 10 Feb 09:32:08 09:34:11 12° 314° (NW) 09:36:13 437.470
GOMX 1 10 Feb 09:32:41 09:35:48 18° 303° (WNW) 09:38:48 467.674
NANOSAT C BR1 10 Feb 09:36:18 09:39:10 18° 59° (ENE) 09:42:02 145.865
ANTELSAT 10 Feb 09:37:25 09:41:37 57° 71° (ENE) 09:45:49 437.575/2403.000
DUCHIFAT 1 10 Feb 09:37:34 09:40:23 18° 59° (ENE) 09:43:13 145.980
HUMSAT D 10 Feb 09:38:43 09:40:05 11° 86° (E) 09:41:25 437.325/437.525
HO-68 10 Feb 09:40:33 09:47:47 77° 292° (WNW) 09:54:58 435.675
O/OREOS (USA 219) 10 Feb 09:43:15 09:47:28 39° 308° (NW) 09:51:45 437.305
QB50P1 10 Feb 09:44:04 09:47:17 21° 61° (ENE) 09:50:29 145.935-145.965
TIGRISAT 10 Feb 09:44:06 09:48:20 63° 72° (ENE) 09:52:34 435.000
AO-7 10 Feb 09:46:35 09:47:31 10° 353° (N) 09:48:28 29.400- 29.500
GONETS M04 10 Feb 09:54:37 10:03:19 82° 281° (W) 10:12:08
COMPASS 1 10 Feb 10:00:00 10:04:06 50° 290° (WNW) 10:08:12 437.405
CINEMA 3 10 Feb 10:01:58 10:05:47 35° 293° (WNW) 10:09:34 145.822/145.860
Oscar 11 10 Feb 10:02:52 10:07:14 69° 103° (ESE) 10:11:34 145.826/435.025
DELFI C3 10 Feb 10:03:13 10:07:04 40° 98° (E) 10:10:53 145.870
AIST 1 10 Feb 10:04:08 10:07:17 20° 85° (E) 10:10:27
UWE-3 10 Feb 10:04:59 10:09:11 79° 103° (ESE) 10:13:27 435.000/436.395/437.385
CUBEBUG 2 10 Feb 10:05:17 10:09:28 78° 286° (WNW) 10:13:42 437.445
CUTE 1.7 + AOD 2 10 Feb 10:09:54 10:13:31 27° 296° (WNW) 10:17:07 437.475
SEEDS 10 Feb 10:15:21 10:19:03 29° 295° (WNW) 10:22:46 437.485
AO-85 10 Feb 10:22:32 10:27:09 30° 116° (ESE) 10:31:52 145.980
CUSAT 1 10 Feb 10:22:35 10:23:28 10° 36° (NE) 10:24:18 437.405
SO-50 10 Feb 10:26:55 10:30:27 19° 9° (N) 10:33:56 436.795
AAUSAT CUBESAT 2 10 Feb 10:28:28 10:32:14 32° 294° (WNW) 10:36:00 437.432
UNISAT 6 10 Feb 10:29:08 10:33:18 47° 261° (W) 10:37:27 437.425
POLYITAN 1 10 Feb 10:35:41 10:39:51 61° 71° (ENE) 10:44:02 437.675
BUGSAT 1 10 Feb 10:35:56 10:39:42 33° 66° (ENE) 10:43:26 437.445
QB50P2 10 Feb 10:36:17 10:40:28 63° 72° (ENE) 10:44:40 145.880/145.840
PCSat 10 Feb 10:43:00 10:47:32 28° 111° (ESE) 10:52:05 145.827
Cosmos 2499 10 Feb 10:52:31 11:01:20 80° 281° (WNW) 11:10:17 435.465 / 435.565
CANX-2 10 Feb 10:56:56 10:58:12 11° 307° (NW) 10:59:27 2200.000
DANDE 10 Feb 10:57:36 11:01:37 15° 39° (NE) 11:05:17 436.750
ZACube-1 10 Feb 10:58:09 11:02:09 44° 291° (WNW) 11:06:12 437.345
POPSAT HIP 1 10 Feb 11:05:54 11:10:08 72° 257° (WSW) 11:14:23 437.405
FUNcube-1 10 Feb 11:07:01 11:10:56 39° 292° (WNW) 11:14:52 145.935
NANOSAT C BR1 10 Feb 11:10:18 11:14:30 66° 257° (WSW) 11:18:43 145.865
DUCHIFAT 1 10 Feb 11:11:29 11:15:41 67° 257° (WSW) 11:19:54 145.980
VELOX 1 10 Feb 11:12:05 11:15:29 21° 91° (E) 11:18:50 145.980
HUMSAT D 10 Feb 11:12:11 11:16:22 89° 103° (ESE) 11:20:35 437.325/437.525
ANTELSAT 10 Feb 11:15:41 11:18:43 19° 269° (W) 11:21:45 437.575/2403.000
QB50P1 10 Feb 11:18:37 11:22:46 53° 259° (W) 11:26:57 145.935-145.965
TIGRISAT 10 Feb 11:22:40 11:25:29 17° 270° (W) 11:28:17 435.000
Oscar 19 10 Feb 11:26:55 11:30:42 21° 56° (NE) 11:34:30 437.125/150
O/OREOS (USA 219) 10 Feb 11:27:09 11:28:13 11° 331° (NNW) 11:29:17 437.305
RS-15 10 Feb 11:27:13 11:37:26 44° 111° (ESE) 11:48:09 29.354- 29.394
AISAT 10 Feb 11:28:31 11:32:27 30° 95° (E) 11:36:20 437.250
HO-68 10 Feb 11:29:10 11:34:30 23° 314° (NW) 11:39:49 435.675
JAS-2 10 Feb 11:31:03 11:36:46 26° 54° (NE) 11:42:03 435.910
AO-7 10 Feb 11:33:12 11:36:44 13° 21° (NNE) 11:40:15 29.400- 29.500
UKube-1 10 Feb 11:38:20 11:42:16 32° 97° (E) 11:46:09 .
DELFI C3 10 Feb 11:38:30 11:41:49 25° 297° (WNW) 11:45:09 145.870
Oscar 11 10 Feb 11:39:57 11:42:55 18° 302° (WNW) 11:45:53 145.826/435.025
AIST 1 10 Feb 11:40:11 11:44:31 54° 285° (WNW) 11:48:52
UWE-3 10 Feb 11:42:43 11:45:10 15° 302° (WNW) 11:47:38 435.000/436.395/437.385
CUBEBUG 2 10 Feb 11:43:50 11:45:27 12° 305° (NW) 11:47:04 437.445
50 SAT 10 Feb 11:44:03 11:47:45 48° 100° (E) 11:51:28 437.505
CUBEBUG 1 10 Feb 11:46:31 11:50:37 37° 97° (E) 11:54:39 437.445
SPROUT 10 Feb 11:47:27 11:50:08 16° 89° (E) 11:52:47 437.525
DX 1 10 Feb 11:51:11 11:55:27 49° 100° (E) 11:59:39 434.975-435.025
ESTCUBE 1 10 Feb 11:52:17 11:56:47 55° 101° (E) 12:01:14 437.505/2401.250
GONETS M04 10 Feb 11:54:53 12:01:41 25° 307° (NW) 12:08:35
AO-85 10 Feb 12:01:56 12:07:24 68° 316° (NW) 12:12:54 145.980
CUSAT 1 10 Feb 12:02:09 12:08:11 38° 63° (ENE) 12:12:50 437.405
Gurwin Techsat 1B 10 Feb 12:02:47 12:06:23 19° 53° (NE) 12:09:58 435.225
SO-50 10 Feb 12:07:42 12:12:15 37° 32° (NNE) 12:16:42 436.795
BUGSAT 1 10 Feb 12:11:21 12:15:07 31° 264° (W) 12:18:50 437.445
POLYITAN 1 10 Feb 12:13:14 12:16:04 17° 270° (W) 12:18:56 437.675
QB50P2 10 Feb 12:13:56 12:16:43 17° 270° (W) 12:19:30 145.880/145.840
PCSat 10 Feb 12:25:10 12:30:35 65° 312° (NW) 12:36:01 145.827
YUBILEINY 10 Feb 12:36:29 12:43:22 24° 52° (NE) 12:50:13 435.215
ITAMSAT 1 10 Feb 12:37:11 12:40:51 20° 54° (NE) 12:44:32 435.822/435.867
DANDE 10 Feb 12:39:36 12:46:57 48° 66° (ENE) 12:52:40 436.750
VELOX 1 10 Feb 12:47:57 12:52:18 54° 291° (WNW) 12:56:35 145.980
Cosmos 2499 10 Feb 12:49:04 12:56:03 25° 307° (NW) 13:03:02 435.465 / 435.565
HUMSAT D 10 Feb 12:49:18 12:51:27 14° 303° (WNW) 12:53:36 437.325/437.525
